Weather History for Milwaukee Timmerman, WI

Change the Weather History Date:

Saturday, December 17, 2011

  Actual Average Record
Temperature  
Mean Temperature 26 °F -  
Max Temperature 30 °F 31 °F 49 °F (1984)
Min Temperature 23 °F 18 °F -11 °F (1951)
Degree Days  
Heating Degree Days 38    
Moisture  
Dew Point 22 °F    
Average Humidity 84    
Maximum Humidity 93    
Minimum Humidity 74    
Precipitation  
Precipitation 0.00 in - - ()
Sea Level Pressure  
Sea Level Pressure 30.23 in    
Wind  
Wind Speed 4 mph (West)    
Max Wind Speed 9 mph    
Max Gust Speed -    
Visibility 7 miles    
Events Snow    
Averages and records for this station are not official NWS values.
T = Trace of Precipitation, MM = Missing Value Source: NWS Daily Summary

Daily Weather History Graph

Daily Weather History Graph

Search for Another Location

Airport:

Trip Planner

Search our weather history database for the weather conditions in past years. The results will help you decide how hot, cold, wet, or windy it might be!

Date:

Astronomy

Dec. 17, 2011 Rise Set
Actual Time 7:18 AM CST 4:18 PM CST
Civil Twilight 6:45 AM CST 4:50 PM CST
Nautical Twilight 6:09 AM CST 5:26 PM CST
Astronomical Twilight 5:35 AM CST 6:01 PM CST
Moon No Moon Rise 11:22 AM CST (12/17)
Length of Visible Light 10h 05m
Length of Day
9h 00m
Waning Gibbous, 53% of the Moon is Illuminated
Dec 17
Waning Gibbous
Dec 17
Last Quarter
Dec 24
New
Jan 1
First Quarter
Jan 9
Full

Hourly Weather History & Observations

Time (CST) Temp. Windchill Dew Point Humidity Pressure Visibility Wind Dir Wind Speed Gust Speed Precip Events Conditions
12:15 AM 23.0 °F - 17.6 °F 80% 30.32 in 10.0 mi Calm Calm - N/A   Overcast
12:35 AM 24.8 °F 20.5 °F 17.6 °F 74% 30.33 in 10.0 mi WNW 3.5 mph - N/A   Overcast
12:55 AM 24.8 °F 19.1 °F 17.6 °F 74% 30.33 in 10.0 mi West 4.6 mph - N/A   Overcast
1:15 AM 24.8 °F 20.5 °F 17.6 °F 74% 30.32 in 10.0 mi WNW 3.5 mph - N/A   Overcast
1:35 AM 24.8 °F 20.5 °F 17.6 °F 74% 30.32 in 10.0 mi West 3.5 mph - N/A   Overcast
1:55 AM 24.8 °F 19.1 °F 17.6 °F 74% 30.33 in 10.0 mi West 4.6 mph - N/A   Overcast
2:15 AM 24.8 °F 20.5 °F 17.6 °F 74% 30.33 in 10.0 mi WNW 3.5 mph - N/A   Overcast
2:35 AM 24.8 °F 19.1 °F 19.4 °F 80% 30.32 in 4.0 mi WNW 4.6 mph - N/A Snow Light Snow
2:55 AM 23.0 °F 18.4 °F 19.4 °F 86% 30.31 in 4.0 mi WNW 3.5 mph - N/A Snow Light Snow
3:15 AM 23.0 °F 18.4 °F 19.4 °F 86% 30.31 in 5.0 mi WNW 3.5 mph - N/A Snow Light Snow
3:35 AM 23.0 °F 18.4 °F 19.4 °F 86% 30.31 in 4.0 mi West 3.5 mph - N/A Snow Light Snow
3:55 AM 23.0 °F 18.4 °F 21.2 °F 93% 30.30 in 4.0 mi West 3.5 mph - N/A Snow Light Snow
4:15 AM 23.0 °F - 21.2 °F 93% 30.30 in 2.5 mi Calm Calm - N/A Snow Light Snow
4:35 AM 23.0 °F - 21.2 °F 93% 30.30 in 2.5 mi Calm Calm - N/A Snow Light Snow
4:55 AM 23.0 °F - 21.2 °F 93% 30.29 in 2.5 mi Calm Calm - N/A Snow Light Snow
5:15 AM 23.0 °F - 21.2 °F 93% 30.29 in 4.0 mi Calm Calm - N/A Snow Light Snow
5:35 AM 23.0 °F - 21.2 °F 93% 30.29 in 3.0 mi Calm Calm - N/A Snow Light Snow
5:55 AM 23.0 °F - 21.2 °F 93% 30.28 in 2.0 mi Calm Calm - N/A Snow Light Snow
6:45 AM 23.0 °F 18.4 °F 21.2 °F 93% 30.28 in 3.0 mi SW 3.5 mph - N/A Snow Light Snow
7:49 AM 23.0 °F - 21.2 °F 93% 30.26 in 4.0 mi Calm Calm - N/A Snow Light Snow
8:45 AM 23.0 °F - 21.2 °F 93% 30.25 in 7.0 mi Calm Calm - N/A   Scattered Clouds
9:45 AM 26.6 °F - 21.2 °F 80% 30.25 in 10.0 mi Calm Calm - N/A   Clear
10:50 AM 28.4 °F 20.4 °F 21.2 °F 74% 30.24 in 10.0 mi WSW 8.1 mph - N/A   Scattered Clouds
11:15 AM 28.4 °F 21.2 °F 21.2 °F 74% 30.23 in 10.0 mi SW 6.9 mph - N/A   Mostly Cloudy
11:45 AM 28.4 °F 20.4 °F 21.2 °F 74% 30.22 in 10.0 mi WSW 8.1 mph - N/A   Overcast
12:45 PM 28.4 °F 20.4 °F 23.0 °F 80% 30.20 in 10.0 mi WSW 8.1 mph - N/A   Overcast
1:45 PM 28.4 °F 20.4 °F 23.0 °F 80% 30.18 in 10.0 mi WSW 8.1 mph - N/A   Overcast
2:45 PM 28.4 °F 20.4 °F 23.0 °F 80% 30.15 in 10.0 mi SW 8.1 mph - N/A   Overcast
3:45 PM 28.4 °F 21.2 °F 24.8 °F 86% 30.15 in 10.0 mi SW 6.9 mph - N/A   Overcast
4:45 PM 28.4 °F 21.2 °F 24.8 °F 86% 30.14 in 10.0 mi SSW 6.9 mph - N/A   Overcast
6:45 PM 28.4 °F 19.7 °F 24.8 °F 86% 30.15 in 10.0 mi WSW 9.2 mph - N/A   Overcast
7:55 PM 28.4 °F 20.4 °F 24.8 °F 86% 30.15 in 7.0 mi WSW 8.1 mph - N/A   Overcast
8:15 PM 30.2 °F 23.4 °F 24.8 °F 80% 30.14 in 7.0 mi WSW 6.9 mph - N/A   Overcast
8:35 PM 30.2 °F 23.4 °F 24.8 °F 80% 30.14 in 7.0 mi WSW 6.9 mph - N/A   Overcast
8:45 PM 28.4 °F 20.4 °F 24.8 °F 86% 30.14 in 7.0 mi WSW 8.1 mph - N/A   Overcast
8:55 PM 30.2 °F 24.3 °F 26.6 °F 86% 30.14 in 7.0 mi WSW 5.8 mph - N/A   Overcast
9:15 PM 30.2 °F 25.4 °F 24.8 °F 80% 30.14 in 7.0 mi WSW 4.6 mph - N/A   Overcast
9:35 PM 30.2 °F 22.6 °F 26.6 °F 86% 30.14 in 7.0 mi West 8.1 mph - N/A   Overcast
9:55 PM 30.2 °F 22.6 °F 26.6 °F 86% 30.14 in 7.0 mi WSW 8.1 mph - N/A   Overcast
10:15 PM 30.2 °F 24.3 °F 26.6 °F 86% 30.14 in 7.0 mi West 5.8 mph - N/A   Overcast
10:35 PM 30.2 °F 25.4 °F 26.6 °F 86% 30.14 in 10.0 mi West 4.6 mph - N/A   Overcast
10:55 PM 30.2 °F 24.3 °F 26.6 °F 86% 30.14 in 10.0 mi West 5.8 mph - N/A   Overcast
11:35 PM 30.2 °F 24.3 °F 26.6 °F 86% 30.15 in 10.0 mi West 5.8 mph - N/A   Overcast
11:55 PM 30.2 °F 22.6 °F 24.8 °F 80% 30.14 in 10.0 mi WNW 8.1 mph - N/A   Overcast